This is the latest recevied weather packets stored in our database for station/object KE0FIN. If no packets are shown the sender has not sent any weather packets the latest 10 day(s).
| Time | Temp. | Humidity | Pressure | Rain* | Wind** | Luminosity | Snow |
|---|---|---|---|---|---|---|---|
| 1777618622 | 8.33° C | 78% | 1071.2 hPa | 0 mm | - | 0 W/m² | - |
| 1777618317 | 8.33° C | 78% | 1071.3 hPa | 0 mm | - | 0 W/m² | - |
| 1777618015 | 8.33° C | 78% | 1071.3 hPa | 0 mm | - | 0 W/m² | - |
| 1777617710 | 8.89° C | 78% | 1071.3 hPa | 0 mm | - | 0 W/m² | - |
| 1777617405 | 8.89° C | 78% | 1071.4 hPa | 0 mm | - | 0 W/m² | - |
| 1777617104 | 8.89° C | 80% | 1071.4 hPa | 0 mm | - | 0 W/m² | - |
| 1777616798 | 8.33° C | 81% | 1071.3 hPa | 0 mm | - | 0 W/m² | - |
| 1777616494 | 8.33° C | 81% | 1071.4 hPa | 0 mm | - | 0 W/m² | - |
| 1777616190 | 8.33° C | 82% | 1071.4 hPa | 0 mm | - | 0 W/m² | - |
| 1777615888 | 8.33° C | 82% | 1071.3 hPa | 0 mm | - | 0 W/m² | - |
| 1777615584 | 8.33° C | 83% | 1071.2 hPa | 0 mm | - | 0 W/m² | - |
| 1777615281 | 7.78° C | 84% | 1071 hPa | 0 mm | - | 0 W/m² | - |
| 1777614979 | 7.78° C | 85% | 1071 hPa | 0 mm | - | 0 W/m² | - |
| 1777614676 | 7.78° C | 86% | 1070.8 hPa | 0 mm | - | 0 W/m² | - |
| 1777614372 | 7.78° C | 87% | 1071.1 hPa | 0 mm | - | 0 W/m² | - |
| 1777614068 | 7.78° C | 86% | 1071 hPa | 0 mm | - | 0 W/m² | - |
| 1777613763 | 7.78° C | 86% | 1070.9 hPa | 0 mm | - | 0 W/m² | - |
| 1777613461 | 7.78° C | 85% | 1070.8 hPa | 0 mm | - | 0 W/m² | - |
| 1777613157 | 8.33° C | 85% | 1070.9 hPa | 0 mm | - | 0 W/m² | - |
| 1777612854 | 8.33° C | 84% | 1070.6 hPa | 0 mm | - | 0 W/m² | - |
| 1777612550 | 8.89° C | 83% | 1070.9 hPa | 0 mm | - | 0 W/m² | - |
| 1777612245 | 8.89° C | 82% | 1070.5 hPa | 0 mm | - | 0 W/m² | - |
| 1777611940 | 9.44° C | 81% | 1070.5 hPa | 0 mm | - | 0 W/m² | - |
| 1777611636 | 9.44° C | 80% | 1070.5 hPa | 0 mm | - | 0 W/m² | - |
| 1777611333 | 9.44° C | 80% | 1070.7 hPa | 0 mm | - | 0 W/m² | - |
* Rain latest hour (hover to see other rain measurements)
** Current wind speed in m/s (hover to see current wind gust speed)